National Weather Service Raw Text Product

Displaying AFOS PIL: RWRIA Received: 2018-07-12 08:00 UTC


180 
ASUS43 KDMX 120806
RWRIA 

WEATHER ROUNDUP FOR IOWA
NATIONAL WEATHER SERVICE DES MOINES IA
300 AM CDT THU JUL 12 2018

NOTE: "FAIR" INDICATES FEW OR NO CLOUDS BELOW 12,000 FEET WITH NO
SIGNIFICANT WEATHER AND/OR OBSTRUCTIONS TO VISIBILITY.

* - THESE STATIONS ARE NOT NWS STATIONS...THUS NOT UNDER NWS
QUALITY CONTROL.  THEY ALSO DO NOT REPORT WEATHER SUCH 
AS PRECIPITATION OR FOG.  

IAZ001>003-012>014-020>022-031>034-043>046-120900-
   NORTHWEST IOWA
  
CITY           SKY/WX    TMP DP  RH WIND       PRES   REMARKS
CARROLL *      PTCLDY    77  72  83 S7        30.03S                  
CHEROKEE *     CLEAR     76  74  93 S5        30.00S                  
DENISON *      CLEAR     79  72  78 S10G16    30.03F HX  82           
LE MARS *      CLEAR     77  72  83 S10       29.98S                  
ORANGE CITY *  CLEAR     77  72  83 S5        29.99S                  
SHELDON *      CLEAR     75  73  94 S9        29.98S                  
SIOUX CITY     CLEAR     79  71  76 S7        29.97F HX  82           
STORM LAKE *   CLEAR     73  73 100 S8        30.02F                  
$$
 
IAZ055>058-069>071-079>083-090>094-120900-
   SOUTHWEST IOWA
  
CITY           SKY/WX    TMP DP  RH WIND       PRES   REMARKS
ATLANTIC *     CLEAR     77  70  78 S9        30.04F                  
AUDUBON *      CLEAR     75  70  83 S7        30.05F                  
CLARINDA *     CLEAR     73  70  88 S5        30.07S                  
COUNCIL BLFS * CLEAR     79  70  73 S8        30.03S HX  81           
CRESTON *      CLEAR     75  66  73 S9        30.09S                  
HARLAN  *        N/A     75  72  88 S6        30.04S                  
LAMONI         CLEAR     75  63  66 S7        30.08F                  
RED OAK *      CLEAR     77  70  78 S5        30.04F                  
SHENANDOAH *   CLEAR     75  70  83 SE7       30.04S                  
$$
 
IAZ047>049-059>061-072>074-084-120900-
   CENTRAL IOWA
  
CITY           SKY/WX    TMP DP  RH WIND       PRES   REMARKS
AMES           CLEAR     72  66  81 S6        30.06S                  
ANKENY *       CLEAR     75  64  69 S7G13     30.07S                  
BOONE *        CLEAR     73  66  78 S7        30.05F                  
CHARITON *     PTCLDY    72  63  73 S8        30.08S                  
DES MOINES     CLEAR     75  64  68 S9        30.05F                  
GRINNELL*      CLEAR     71  63  75 SE7       30.10S                  
KNOXVILLE *    CLEAR     73  63  68 SE7       30.07S                  
MARSHALLTOWN   CLEAR     71  65  81 SE7       30.06F                  
NEWTON *       CLEAR     70  64  83 SE8       30.07F                  
PELLA *        CLEAR     73  62  68 SE6       30.09S                  
PERRY *        FAIR      74  69  85 MISG      30.05F                  
$$
 
IAZ004>006-015-016-023>025-035-036-120900-
   NORTH CENTRAL IOWA
  
CITY           SKY/WX    TMP DP  RH WIND       PRES   REMARKS
ALGONA *       CLEAR     75  68  78 S13       30.03R                  
CLARION *      PTCLDY    75  66  73 S14G20    30.04F                  
ESTHERVILLE    CLEAR     76  70  82 S14       30.00S                  
FORT DODGE *   CLEAR     78  65  63 S14G20    30.04S HX  80           
MASON CITY     CLEAR     72  65  78 S13       30.06S                  
FOREST CITY *  FAIR      73  64  73 S10G17    30.04S                  
WEBSTER CITY * CLEAR     75  66  73 S10       30.03S                  
IOWA FALLS *   FAIR      74  64  72 S13       30.07F                  
$$

IAZ007>011-017>019-026>030-037>042-050>054-066-120900-
   NORTHEAST IOWA
  
CITY           SKY/WX    TMP DP  RH WIND       PRES   REMARKS
CEDAR RAPIDS   FAIR      70  66  87 S7        30.09S                  
CHARLES CITY * FAIR      70  64  83 S10       30.07F                  
CLINTON *      FAIR      69  66  90 SE6       30.12F                  
DECORAH *      CLOUDY    70  66  88 S7        30.07F                  
DUBUQUE        FAIR      68  63  84 S9        30.11F                  
MONTICELLO *   FAIR      70  66  88 SE6       30.10S                  
OELWEIN *      FAIR      68  66  94 SE7       30.09F                  
WATERLOO       FAIR      71  65  81 S9        30.06F                  
$$
 
IAZ064-065-067-068-078-120900-
   EAST CENTRAL IOWA
  
CITY           SKY/WX    TMP DP  RH WIND       PRES   REMARKS
DAVENPORT      FAIR      72  65  78 S8        30.13F                  
IOWA CITY      FAIR      70  66  87 CALM      30.10F                  
MUSCATINE *      N/A     66  63  88 CALM      30.10S                  
QUAD CITIES    FAIR      70  65  84 SE3       30.11S                  
$$
 
IAZ062-063-075>077-085>089-095>099-120900-
   SOUTHEAST IOWA
  
CITY           SKY/WX    TMP DP  RH WIND       PRES   REMARKS
BURLINGTON     CLEAR     74  68  81 S7        30.10F                  
FAIRFIELD *    CLEAR     70  64  83 S6        30.09S                  
FORT MADISON * CLEAR     73  70  88 S7        30.11S                  
KEOKUK *       CLEAR     73  68  83 MISG      30.10R                  
OSKALOOSA *    FAIR      67  64  88 S7        30.09S                  
CENTERVILLE *    N/A     70  64  83 CALM      30.11S                  
OTTUMWA        CLEAR     73  65  75 S10       30.08F                  
WASHINGTON *   CLEAR     70  70 100 S7        30.11R                  
$$

ABBREVIATIONS USED IN REMARKS
   TC - TEMPERATURES IN CELSIUS
  WCI - WIND CHILL INDEX
   HX - HEAT INDEX
  VSB - VISIBILITY  
$$

  

794 
ASUS43 KDMX 120801
RWRIA 

WEATHER ROUNDUP FOR IOWA
NATIONAL WEATHER SERVICE DES MOINES IA
300 AM CDT THU JUL 12 2018

NOTE: "FAIR" INDICATES FEW OR NO CLOUDS BELOW 12,000 FEET WITH NO
SIGNIFICANT WEATHER AND/OR OBSTRUCTIONS TO VISIBILITY.

* - THESE STATIONS ARE NOT NWS STATIONS...THUS NOT UNDER NWS
QUALITY CONTROL.  THEY ALSO DO NOT REPORT WEATHER SUCH 
AS PRECIPITATION OR FOG.  

IAZ001>003-012>014-020>022-031>034-043>046-120900-
   NORTHWEST IOWA
  
CITY           SKY/WX    TMP DP  RH WIND       PRES   REMARKS
CARROLL *      PTCLDY    77  72  83 S7        30.03S                  
CHEROKEE *     CLEAR     76  74  93 S5        30.00S                  
DENISON *      CLEAR     79  72  78 S10G16    30.03F HX  82           
LE MARS *      CLEAR     77  72  83 S10       29.98S                  
ORANGE CITY *  CLEAR     77  72  83 S5        29.99S                  
SHELDON *      CLEAR     75  73  94 S9        29.98S                  
SIOUX CITY     CLEAR     79  71  76 S7        29.97F HX  82           
STORM LAKE *   CLEAR     73  73 100 S8        30.02F                  
$$
 
IAZ055>058-069>071-079>083-090>094-120900-
   SOUTHWEST IOWA
  
CITY           SKY/WX    TMP DP  RH WIND       PRES   REMARKS
ATLANTIC *     CLEAR     77  70  78 S9        30.04F                  
AUDUBON *      CLEAR     75  70  83 S7        30.05F                  
CLARINDA *     CLEAR     73  70  88 S5        30.07S                  
COUNCIL BLFS * CLEAR     79  70  73 S8        30.03S HX  81           
CRESTON *      CLEAR     75  66  73 S9        30.09S                  
HARLAN  *        N/A     75  72  88 S6        30.04S                  
LAMONI         CLEAR     75  63  66 S7        30.08F                  
RED OAK *      CLEAR     77  70  78 S5        30.04F                  
SHENANDOAH *   CLEAR     75  70  83 SE7       30.04S                  
$$
 
IAZ047>049-059>061-072>074-084-120900-
   CENTRAL IOWA
  
CITY           SKY/WX    TMP DP  RH WIND       PRES   REMARKS
AMES           CLEAR     72  66  81 S6        30.06S                  
ANKENY *       CLEAR     75  64  69 S7G13     30.07S                  
BOONE *        CLEAR     73  66  78 S7        30.05F                  
CHARITON *     PTCLDY    72  63  73 S8        30.08S                  
DES MOINES     CLEAR     75  64  68 S9        30.05F                  
GRINNELL*      CLEAR     71  63  75 SE7       30.10S                  
KNOXVILLE *    CLEAR     73  63  68 SE7       30.07S                  
MARSHALLTOWN   CLEAR     71  65  81 SE7       30.06F                  
NEWTON *       CLEAR     70  64  83 SE8       30.07F                  
PELLA *        CLEAR     73  62  68 SE6       30.09S                  
PERRY *        FAIR      74  69  85 MISG      30.05F                  
$$
 
IAZ004>006-015-016-023>025-035-036-120900-
   NORTH CENTRAL IOWA
  
CITY           SKY/WX    TMP DP  RH WIND       PRES   REMARKS
ALGONA *       CLEAR     75  68  78 S13       30.03R                  
CLARION *      PTCLDY    75  66  73 S14G20    30.04F                  
ESTHERVILLE    CLEAR     76  70  82 S14       30.00S                  
FORT DODGE *   CLEAR     78  65  63 S14G20    30.04S HX  80           
MASON CITY     CLEAR     72  65  78 S13       30.06S                  
FOREST CITY *  FAIR      73  64  73 S10G17    30.04S                  
WEBSTER CITY * CLEAR     75  66  73 S10       30.03S                  
IOWA FALLS *   FAIR      74  64  72 S13       30.07F                  
$$

IAZ007>011-017>019-026>030-037>042-050>054-066-120900-
   NORTHEAST IOWA
  
CITY           SKY/WX    TMP DP  RH WIND       PRES   REMARKS
CEDAR RAPIDS   FAIR      70  66  87 S7        30.09S                  
CHARLES CITY * FAIR      70  64  83 S10       30.07F                  
CLINTON *      FAIR      69  66  90 SE6       30.12F                  
DECORAH *      CLOUDY    70  66  88 S7        30.07F                  
DUBUQUE        FAIR      68  63  84 S9        30.11F                  
MONTICELLO *   FAIR      70  66  88 SE6       30.10S                  
OELWEIN *      FAIR      68  66  94 SE7       30.09F                  
WATERLOO       FAIR      71  65  81 S9        30.06F                  
$$
 
IAZ064-065-067-068-078-120900-
   EAST CENTRAL IOWA
  
CITY           SKY/WX    TMP DP  RH WIND       PRES   REMARKS
DAVENPORT      FAIR      72  65  78 S8        30.13F                  
IOWA CITY      FAIR      70  66  87 CALM      30.10F                  
MUSCATINE *      N/A     66  63  88 CALM      30.10S                  
QUAD CITIES    FAIR      70  65  84 SE3       30.11S                  
$$
 
IAZ062-063-075>077-085>089-095>099-120900-
   SOUTHEAST IOWA
  
CITY           SKY/WX    TMP DP  RH WIND       PRES   REMARKS
BURLINGTON     CLEAR     74  68  81 S7        30.10F                  
FAIRFIELD *    CLEAR     70  64  83 S6        30.09S                  
FORT MADISON * CLEAR     73  70  88 S7        30.11S                  
KEOKUK *       CLEAR     73  68  83 MISG      30.10R                  
OSKALOOSA *    FAIR      67  64  88 S7        30.09S                  
CENTERVILLE *    N/A     70  64  83 CALM      30.11S                  
OTTUMWA        CLEAR     73  65  75 S10       30.08F                  
WASHINGTON *   CLEAR     70  70 100 S7        30.11R                  
$$

ABBREVIATIONS USED IN REMARKS
   TC - TEMPERATURES IN CELSIUS
  WCI - WIND CHILL INDEX
   HX - HEAT INDEX
  VSB - VISIBILITY  
$$